Weather in Concord

United States     43°11′51″N   71°31′47″W
temp.,
°C
wind,
m/s
gust,
m/s
humid.,
%
clouds,
%
prec.,
mm/h
press.,
hPa
HPBL,
m
20 may, fri
fri2023:00+10nnw139999 0.0 1009139
02:00+9nw249995 0.0 1010134
05:00+8ne119866 0.0 101219
08:00+12sse118923 0.0 1015301
11:00+18s33607 0.0 1015994
14:00+23sse465228 0.0 10141404
17:00+20se7964100 0.0 1014560
20:00+13ese378915 0.0 1016253
21 may, sat
sat2123:00+10e1299100 0.0 101737
02:00+12ene139797 0.1 1017117
05:00+12ese1699100 0.0 1016229
08:00+14e1197100 0.0 1017132
11:00+19ssw1185100 0.0 1016398
14:00+29ssw265596 0.0 10151234
17:00+32wnw46444 0.0 10141700
20:00+24w11755 0.0 101611
22 may, sun
sun2223:00+21ssw0187100 0.0 101611
02:00+19ssw119392 0.2 101611
05:00+18ne009499 0.0 101711
08:00+23sse12796 0.0 1017195
11:00+32ssw494520 0.0 10151851
14:00+35ssw5113271 0.0 10123294
17:00+33sw5113611 0.0 10112812
20:00+27sw5135145 0.1 1012724
23 may, mon
mon2323:00+19nw31195100 2.1 1015418
02:00+17wnw4994100 2.1 1016495
05:00+12nw3108859 0.0 1019463
08:00+15nw476263 0.0 1021586
11:00+18nw3445100 0.0 10221095
14:00+20wnw3341100 0.0 10211335
17:00+18nw3552100 0.0 1021547
20:00+13nw1169100 0.0 102311
24 may, tue
tue2423:00+12n1278100 0.0 102441
02:00+12ne2681100 0.0 1025380
05:00+10nne25718 0.0 1026234
08:00+14ne36552 0.0 1027736
11:00+18e334332 0.0 10271600
14:00+21ese32369 0.0 10252085
17:00+18se544638 0.0 10251061
20:00+12se3772100 0.0 1026326